This is the latest recevied weather packets stored in our database for station/object WA6OOO. If no packets are shown the sender has not sent any weather packets the latest 10 day(s).
| Time | Temp. | Humidity | Pressure | Rain* | Wind** | Luminosity | Snow |
|---|---|---|---|---|---|---|---|
| 1777487252 | 20.56° C | 52% | 1019.6 hPa | 0 mm | - | 740 W/m² | - |
| 1777486948 | 20° C | 52% | 1019.6 hPa | 0 mm | - | 733 W/m² | - |
| 1777486645 | 20° C | 52% | 1019.7 hPa | 0 mm | - | 726 W/m² | - |
| 1777486343 | 20.56° C | 52% | 1019.6 hPa | 0 mm | - | 719 W/m² | - |
| 1777486040 | 20° C | 53% | 1019.7 hPa | 0 mm | - | 709 W/m² | - |
| 1777485736 | 20° C | 55% | 1019.7 hPa | 0 mm | - | 700 W/m² | - |
| 1777485432 | 20° C | 54% | 1019.9 hPa | 0 mm | - | 690 W/m² | - |
| 1777485128 | 19.44° C | 54% | 1019.6 hPa | 0 mm | - | 682 W/m² | - |
| 1777484825 | 20° C | 54% | 1020 hPa | 0 mm | - | 672 W/m² | - |
| 1777484522 | 20° C | 54% | 1019.8 hPa | 0 mm | - | 661 W/m² | - |
| 1777484219 | 19.44° C | 55% | 1019.7 hPa | 0 mm | - | 652 W/m² | - |
| 1777483915 | 19.44° C | 55% | 1019.8 hPa | 0 mm | - | 641 W/m² | - |
| 1777483611 | 19.44° C | 56% | 1020.1 hPa | 0 mm | - | 630 W/m² | - |
| 1777483306 | 18.89° C | 56% | 1020 hPa | 0 mm | - | 620 W/m² | - |
| 1777483002 | 20° C | 56% | 1020.2 hPa | 0 mm | - | 608 W/m² | - |
| 1777482699 | 19.44° C | 55% | 1020.1 hPa | 0 mm | - | 596 W/m² | - |
| 1777482395 | 20° C | 54% | 1020.1 hPa | 0 mm | - | 583 W/m² | - |
| 1777482093 | 20.56° C | 52% | 1020 hPa | 0 mm | - | 571 W/m² | - |
| 1777481791 | 20.56° C | 49% | 1020.1 hPa | 0 mm | - | 559 W/m² | - |
| 1777481487 | 20.56° C | 48% | 1019.9 hPa | 0 mm | - | 547 W/m² | - |
| 1777481183 | 20.56° C | 49% | 1019.9 hPa | 0 mm | - | 533 W/m² | - |
| 1777480881 | 20° C | 51% | 1019.8 hPa | 0 mm | - | 518 W/m² | - |
| 1777480577 | 20.56° C | 50% | 1019.8 hPa | 0 mm | - | 504 W/m² | - |
| 1777480274 | 20° C | 50% | 1019.8 hPa | 0 mm | - | 489 W/m² | - |
| 1777479970 | 20.56° C | 50% | 1019.8 hPa | 0 mm | - | 474 W/m² | - |
* Rain latest hour (hover to see other rain measurements)
** Current wind speed in m/s (hover to see current wind gust speed)